Regional Weather Roundup
Issued by NWS

Home | Current Version | Previous Version | Text Only | Print | Product List | Glossary On
Versions: 1 2 3 4 5 6 7 8 9 10 11 12 13 14 15 16 17 18 19 20 21 22 23 24 25 26 27 28 29 30 31 32 33 34 35 36 37 38 39 40 41 42 43 44 45 46 47 48 49 50
000
ASUS43 KLSX 281759
RWRMO

WEATHER SUMMARY FOR MISSOURI
NATIONAL WEATHER SERVICE SPRINGFIELD MO
1200 PM CST SUN DEC 28 2014

NOTE: "FAIR" INDICATES FEW OR NO CLOUDS BELOW 12,000 FEET WITH NO
       SIGNIFICANT WEATHER AND/OR OBSTRUCTIONS TO VISIBILITY.
       CURRENT SKY AND/OR WEATHER CONDITIONS ARE NOT AVAILABLE FOR
       CHILLICOTHE AND FARMINGTON.

MOZ001>031-035>038-043-044-053-054-281900-
...NORTHERN AND WESTERN MISSOURI...

CITY           SKY/WX    TMP DP  RH WIND       PRES   REMARKS
KANSAS CTY INT MOSUNNY   34  21  59 SW9       30.20F WCI  27
6HR MIN TEMP:  14; 6HR MAX TEMP:  34;

KANSAS C DTWN  SUNNY     35  19  52 SW8       30.22F WCI  29
6HR MIN TEMP:  19; 6HR MAX TEMP:  36;

LEE`S SUMMIT   SUNNY     33  19  56 S8        30.22F WCI  26
6HR MIN TEMP:  19; 6HR MAX TEMP:  33;

ST JOSEPH      SUNNY     33  23  66 SW10      30.20F WCI  25
6HR MIN TEMP:  14; 6HR MAX TEMP:  33;

CHILLICOTHE      N/A     33  23  66 S7        30.22F WCI  27
6HR MIN TEMP:  16; 6HR MAX TEMP:  33;

KIRKSVILLE     SUNNY     32  19  58 SW7       30.20F WCI  26
6HR MIN TEMP:  18; 6HR MAX TEMP:  32;


$$
MOZ066>068-077>081-088>096-101>105-281900-
...SOUTHWEST MISSOURI...

CITY           SKY/WX    TMP DP  RH WIND       PRES   REMARKS
SPRINGFIELD    CLOUDY    30  23  75 NW3       30.20F
6HR MIN TEMP:  25; 6HR MAX TEMP:  30;

JOPLIN         SUNNY     31  23  72 CALM      30.24F
6HR MIN TEMP:  21; 6HR MAX TEMP:  31;


$$
MOZ032>034-039>042-045>050-055>058-069>072-281900-
...CENTRAL MISSOURI...

CITY           SKY/WX    TMP DP  RH WIND       PRES   REMARKS
COLUMBIA       MOSUNNY   31  24  75 SW3       30.23F
6HR MIN TEMP:  26; 6HR MAX TEMP:  32;

JEFFERSON CITY PTSUNNY   31  23  72 NW5       30.25F WCI  26
6HR MIN TEMP:  28; 6HR MAX TEMP:  32;

ROLLA          PTSUNNY   30  24  78 W3        30.20F
6HR MIN TEMP:  27; 6HR MAX TEMP:  30;

SEDALIA        SUNNY     33  22  63 S6        30.23F WCI  28
6HR MIN TEMP:  22; 6HR MAX TEMP:  33;

OSAGE BEACH    CLOUDY    30  23  74 SW5       30.23F WCI  25

$$
MOZ051-052-059>065-281900-
...EAST CENTRAL MISSOURI...

CITY           SKY/WX    TMP DP  RH WIND       PRES   REMARKS
ST LOUIS INTL  CLOUDY    35  25  66 W6        30.23F
6HR MIN TEMP:  32; 6HR MAX TEMP:  35;

SPIRIT OF STL  CLOUDY    34  25  69 W6        30.23F WCI  29
6HR MIN TEMP:  31; 6HR MAX TEMP:  34;

ST CHARLES     CLOUDY    33  24  69 W7        30.24F WCI  27
6HR MIN TEMP:  30; 6HR MAX TEMP:  33;


$$
MOZ072>076-082>087-097>100-106>115-281900-
...SOUTH CENTRAL AND SOUTHEAST MISSOURI...

CITY           SKY/WX    TMP DP  RH WIND       PRES   REMARKS
CAPE GIRARDEAU CLOUDY    36  30  79 N9        30.23F WCI  29
6HR MIN TEMP:  34; 6HR MAX TEMP:  36;

FARMINGTON     CLOUDY    30  25  80 SE3       30.22F
6HR MIN TEMP:  30; 6HR MAX TEMP:  30;

POPLAR BLUFF   CLOUDY    35  28  75 N7        30.22F WCI  29
6HR MIN TEMP:  34; 6HR MAX TEMP:  36;

WEST PLAINS    CLOUDY    31  24  75 VRB3      30.19F
6HR MIN TEMP:  28; 6HR MAX TEMP:  32;


$$



USA.gov is the U.S. government's official web portal to all federal, state and local government web resources and services.